Location: LDNL
(36.4545°S, 141.6685°E)
Time: 13:00:01
(UTC+10:00)

Vanguard 3 - Pass Details

Date: 29 January 2022
Orbit: 508 x 3258 km, 33.3° (Epoch: 25 May)

Event Time Altitude Azimuth Distance (km) Brightness Sun altitude
Rises 05:49:30 0° 259° (W) 5,507 11.0 -10.9°
Reaches altitude 10° 05:52:42 10° 263° (W) 4,815 10.6 -10.4°
Maximum altitude 06:07:12 57° 336° (NNW) 3,372 10.0 -7.8°
Drops below altitude 10° 06:26:22 10° 47° (NE) 6,156 11.9 -4.4°
Sets 06:31:08 0° 50° (NE) 7,066 12.3 -3.6°
